Location: Newark
(31.8769°N, 91.1411°W)
Time: 01:11:07
(UTC+00:00)

N. Korean satellite - Pass Details

Date: 30 January 2020
Orbit: 456 x 505 km, 97.2° (Epoch: 27 February)

Event Time Altitude Azimuth Distance (km) Brightness Sun altitude
Rises 11:29:07 0° 17° (NNE) 2,564 10.3 -19.3°
Reaches altitude 10° 11:31:14 10° 23° (NNE) 1,687 9.5 -18.9°
Maximum altitude 11:34:46 49° 99° (E) 648 7.6 -18.2°
Drops below altitude 10° 11:38:19 10° 175° (S) 1,697 9.5 -17.4°
Sets 11:40:27 0° 181° (S) 2,581 10.4 -17.0°
